This is the latest recevied weather packets stored in our database for station/object PA3FNT-13. If no packets are shown the sender has not sent any weather packets the latest 10 day(s).
| Time | Temp. | Humidity | Pressure | Rain* | Wind** | Luminosity | Snow |
|---|---|---|---|---|---|---|---|
| 1777446731 | 25° C | 22% | 1029.7 hPa | - | - | - | - |
| 1777445831 | 25.56° C | 22% | 1029.5 hPa | - | - | - | - |
| 1777444995 | 25° C | 22% | 1029.6 hPa | - | - | - | - |
| 1777444931 | 25° C | 22% | 1029.6 hPa | - | - | - | - |
| 1777444031 | 25.56° C | 22% | 1029.5 hPa | - | - | - | - |
| 1777443131 | 25° C | 22% | 1029.4 hPa | - | - | - | - |
| 1777442230 | 25° C | 22% | 1029.3 hPa | - | - | - | - |
| 1777441394 | 25° C | 22% | 1029.2 hPa | - | - | - | - |
| 1777441330 | 25° C | 22% | 1029.2 hPa | - | - | - | - |
| 1777440430 | 25.56° C | 22% | 1029.2 hPa | - | - | - | - |
| 1777439530 | 25.56° C | 21% | 1029.1 hPa | - | - | - | - |
| 1777438630 | 25.56° C | 22% | 1028.9 hPa | - | - | - | - |
| 1777437730 | 25.56° C | 22% | 1028.8 hPa | - | - | - | - |
| 1777436862 | 26.11° C | 22% | 1028.6 hPa | - | - | - | - |
| 1777436829 | 26.11° C | 22% | 1028.6 hPa | - | - | - | - |
| 1777435929 | 25.56° C | 22% | 1028.7 hPa | - | - | - | - |
| 1777435029 | 25° C | 22% | 1028.7 hPa | - | - | - | - |
| 1777434129 | 25° C | 22% | 1028.6 hPa | - | - | - | - |
| 1777433265 | 25° C | 22% | 1028.6 hPa | - | - | - | - |
| 1777433229 | 25° C | 22% | 1028.6 hPa | - | - | - | - |
| 1777432364 | 25° C | 22% | 1028.4 hPa | - | - | - | - |
| 1777432329 | 25° C | 22% | 1028.4 hPa | - | - | - | - |
| 1777431428 | 25° C | 21% | 1028.5 hPa | - | - | - | - |
| 1777430528 | 26.11° C | 22% | 1028.5 hPa | - | - | - | - |
| 1777429628 | 25.56° C | 21% | 1028.6 hPa | - | - | - | - |
* Rain since midnight (hover to see other rain measurements)
** Current wind speed in m/s (hover to see current wind gust speed)